Date String (YYYY-MM-DD hh:mm:ss) UTC,Instrument flags,absolute air pressure of the measurement (hPa),sample flow rate (lpm),inlet stack bypass flow (lpm),air temperature of the measurement (°C),ambient temperature measured by the external sensor (°C),aerosol sample conditioner tube jacket temperature (°C),OPC LED temperature (°C),internal box temperature (°C),relative humidity of the measurement (%),span deviation,mass concentration of particles derived from Lorenz-Mie calculation of OPC scattering (μg/m³),mass concentration of particles derived from Lorenz-Mie calculation of OPC scattering (μg/m³),mass concentration of particles derived from Lorenz-Mie calculation of OPC scattering (μg/m³)
DateTimeUTC,F1_M11,P_M11,Q1_M11,Q2_M11,T1_M11,T2_M11,T3_M11,T4_M11,T5_M11,U1_M11,ZSPAN_M11,X0_M11,X2_M11,X1_M11
2023-12-18 21:00:00,SystemResetWarning,0828.4,5.00,000.00,023.0,022.2,000.0,031.2,024.4,11.5,0000.0,0011.43,0004.71,0003.88
2023-12-18 21:01:00,SystemResetWarning,0828.4,4.99,000.00,023.0,022.2,000.0,031.3,024.4,11.4,0000.0,0011.93,0004.76,0003.88
2023-12-18 21:02:00,SystemResetWarning,0828.5,5.00,000.00,023.0,022.2,000.0,031.3,024.4,11.4,0000.0,0011.42,0004.72,0003.86
2023-12-18 21:03:00,SystemResetWarning,0828.5,4.99,000.00,023.0,022.2,000.0,031.3,024.4,11.4,0000.0,0010.91,0004.66,0003.82
2023-12-18 21:04:00,SystemResetWarning,0828.4,4.99,000.00,023.0,022.2,000.0,031.3,024.4,11.4,0000.0,0011.10,0004.60,0003.77
2023-12-18 21:05:00,SystemResetWarning,0828.4,5.00,000.00,023.0,022.2,000.0,031.3,024.4,11.6,0000.0,0011.13,0004.44,0003.71
2023-12-18 21:06:00,SystemResetWarning,0828.4,5.00,000.00,023.0,022.2,000.0,031.3,024.4,11.6,0000.0,0011.12,0004.31,0003.64
2023-12-18 21:07:00,SystemResetWarning,0828.4,5.01,000.00,023.0,022.2,000.0,031.3,024.4,11.5,0000.0,0011.06,0004.22,0003.58
2023-12-18 21:08:00,SystemResetWarning,0828.4,4.99,000.00,023.0,022.2,000.0,031.3,024.4,11.3,0000.0,0010.05,0004.15,0003.54
2023-12-18 21:09:00,SystemResetWarning,0828.4,4.99,000.00,023.0,022.2,000.0,031.3,024.4,11.5,0000.0,0009.81,0004.13,0003.50
2023-12-18 21:10:00,SystemResetWarning,0828.4,5.01,000.00,023.0,022.2,000.0,031.3,024.4,11.5,0000.0,0009.36,0004.03,0003.45
2023-12-18 21:11:00,SystemResetWarning,0828.4,5.00,000.00,023.0,022.2,000.0,031.3,024.4,11.4,0000.0,0009.86,0004.01,0003.43
2023-12-18 21:12:00,SystemResetWarning,0828.4,5.01,000.00,023.1,022.2,000.0,031.3,024.4,11.4,0000.0,0009.79,0004.00,0003.44
2023-12-18 21:13:00,SystemResetWarning,0828.4,5.00,000.00,023.1,022.2,000.0,031.3,024.4,11.5,0000.0,0010.39,0004.08,0003.49
2023-12-18 21:14:00,SystemResetWarning,0828.4,4.99,000.00,023.1,022.2,000.0,031.3,024.4,11.5,0000.0,0011.37,0004.19,0003.55
2023-12-18 21:15:00,SystemResetWarning,0828.4,4.99,000.00,023.1,022.2,000.0,031.3,024.4,11.4,0000.0,0012.67,0004.36,0003.62
2023-12-18 21:16:00,SystemResetWarning,0828.4,5.01,000.00,023.1,022.2,000.0,031.3,024.4,11.5,0000.0,0012.69,0004.49,0003.69
2023-12-18 21:17:00,SystemResetWarning,0828.4,5.01,000.00,023.1,022.2,000.0,031.3,024.4,11.5,0000.0,0012.48,0004.61,0003.76
2023-12-18 21:18:00,SystemResetWarning,0828.4,4.99,000.00,023.1,022.2,000.0,031.3,024.4,11.5,0000.0,0012.54,0004.71,0003.81
2023-12-18 21:19:00,SystemResetWarning,0828.4,4.99,000.00,023.1,022.2,000.0,031.3,024.4,11.5,0000.0,0012.76,0004.79,0003.86
2023-12-18 21:20:00,SystemResetWarning,0828.4,5.01,000.00,023.0,022.2,000.0,031.3,024.4,11.5,0000.0,0013.25,0004.83,0003.89
2023-12-18 21:21:00,SystemResetWarning,0828.4,5.01,000.00,023.0,022.2,000.0,031.3,024.4,11.4,0000.0,0013.42,0004.91,0003.94
2023-12-18 21:22:00,SystemResetWarning,0828.4,4.99,000.00,023.0,022.2,000.0,031.3,024.4,11.5,0000.0,0013.88,0005.00,0003.99
2023-12-18 21:23:00,SystemResetWarning,0828.4,4.98,000.00,023.0,022.2,000.0,031.3,024.3,11.4,0000.0,0014.81,0005.07,0004.02
2023-12-18 21:24:00,SystemResetWarning,0828.3,5.01,000.00,023.0,022.2,000.0,031.3,024.3,11.4,0000.0,0015.26,0005.12,0004.04
2023-12-18 21:25:00,SystemResetWarning,0828.3,5.01,000.00,023.0,022.2,000.0,031.3,024.3,11.5,0000.0,0015.39,0005.15,0004.06
2023-12-18 21:26:00,SystemResetWarning,0828.3,5.01,000.00,023.0,022.2,000.0,031.3,024.3,11.6,0000.0,0014.48,0005.16,0004.08
2023-12-18 21:27:00,SystemResetWarning,0828.3,4.98,000.00,023.0,022.2,000.0,031.3,024.4,11.5,0000.0,0014.58,0005.18,0004.12
2023-12-18 21:28:00,SystemResetWarning,0828.3,5.00,000.00,023.0,022.2,000.0,031.3,024.4,11.4,0000.0,0015.66,0005.27,0004.16
2023-12-18 21:29:00,SystemResetWarning,0828.3,5.01,000.00,023.0,022.2,000.0,031.3,024.4,11.4,0000.0,0015.92,0005.32,0004.19
2023-12-18 21:30:00,SystemResetWarning,0828.3,5.01,000.00,023.0,022.2,000.0,031.3,024.5,11.5,0000.0,0015.87,0005.38,0004.19
2023-12-18 21:31:00,SystemResetWarning,0828.3,4.99,000.00,023.0,022.2,000.0,031.3,024.4,11.8,0000.0,0015.40,0005.38,0004.19
2023-12-18 21:32:00,SystemResetWarning,0828.4,4.99,000.00,023.0,022.3,000.0,031.3,024.5,12.0,0000.0,0015.71,0005.41,0004.22
2023-12-18 21:33:00,SystemResetWarning,0828.4,5.00,000.00,023.1,022.3,000.0,031.3,024.5,11.9,0000.0,0016.38,0005.49,0004.26
2023-12-18 21:34:00,SystemResetWarning,0828.4,5.00,000.00,023.1,022.3,000.0,031.3,024.5,11.8,0000.0,0015.56,0005.55,0004.30
2023-12-18 21:35:00,SystemResetWarning,0828.4,5.00,000.00,023.1,022.3,000.0,031.3,024.5,12.0,0000.0,0015.76,0005.58,0004.32
2023-12-18 21:36:00,SystemResetWarning,0828.4,5.00,000.00,023.1,022.3,000.0,031.3,024.5,11.9,0000.0,0015.27,0005.53,0004.29
2023-12-18 21:37:00,SystemResetWarning,0828.4,5.01,000.00,023.1,022.3,000.0,031.3,024.5,11.9,0000.0,0014.88,0005.42,0004.23
2023-12-18 21:38:00,SystemResetWarning,0828.4,5.01,000.00,023.1,022.3,000.0,031.3,024.5,12.3,0000.0,0015.93,0005.35,0004.16
2023-12-18 21:39:00,SystemResetWarning,0828.4,5.01,000.00,023.1,022.3,000.0,031.3,024.5,11.8,0000.0,0015.57,0005.20,0004.08
2023-12-18 21:40:00,SystemResetWarning,0828.4,5.00,000.00,023.1,022.3,000.0,031.3,024.5,11.7,0000.0,0015.15,0005.07,0003.99
2023-12-18 21:41:00,SystemResetWarning,0828.3,4.99,000.00,023.1,022.3,000.0,031.3,024.5,11.6,0000.0,0014.58,0004.91,0003.92
2023-12-18 21:42:00,SystemResetWarning,0828.2,4.99,000.00,023.1,022.3,000.0,031.3,024.5,11.6,0000.0,0014.45,0004.82,0003.88
2023-12-18 21:43:00,SystemResetWarning,0828.2,5.00,000.00,023.1,022.3,000.0,031.4,024.5,11.6,0000.0,0014.73,0004.74,0003.83
2023-12-18 21:44:00,SystemResetWarning,0828.3,5.01,000.00,023.1,022.3,000.0,031.4,024.5,11.6,0000.0,0014.21,0004.65,0003.75
2023-12-18 21:45:00,SystemResetWarning,0828.2,5.00,000.00,023.1,022.3,000.0,031.4,024.5,11.6,0000.0,0013.27,0004.54,0003.69
2023-12-18 21:46:00,SystemResetWarning,0828.3,5.00,000.00,023.1,022.3,000.0,031.4,024.5,11.6,0000.0,0012.71,0004.40,0003.64
2023-12-18 21:47:00,SystemResetWarning,0828.3,5.00,000.00,023.1,022.3,000.0,031.4,024.5,11.6,0000.0,0012.65,0004.37,0003.62
2023-12-18 21:48:00,SystemResetWarning,0828.4,4.99,000.00,023.1,022.3,000.0,031.4,024.5,11.6,0000.0,0013.88,0004.46,0003.65
2023-12-18 21:49:00,SystemResetWarning,0828.4,5.00,000.00,023.1,022.3,000.0,031.4,024.6,11.7,0000.0,0013.44,0004.52,0003.69
2023-12-18 21:50:00,SystemResetWarning,0828.4,5.01,000.00,023.1,022.3,000.0,031.4,024.5,11.7,0000.0,0013.32,0004.65,0003.76
2023-12-18 21:51:00,SystemResetWarning,0828.4,5.00,000.00,023.1,022.4,000.0,031.4,024.5,11.7,0000.0,0013.03,0004.76,0003.85
2023-12-18 21:52:00,SystemResetWarning,0828.4,4.99,000.00,023.1,022.4,000.0,031.4,024.6,11.7,0000.0,0013.54,0004.89,0003.92
2023-12-18 21:53:00,SystemResetWarning,0828.4,5.00,000.00,023.1,022.4,000.0,031.4,024.6,11.7,0000.0,0013.83,0005.01,0004.00
2023-12-18 21:54:00,SystemResetWarning,0828.3,4.99,000.00,023.2,022.4,000.0,031.4,024.6,11.7,0000.0,0013.64,0005.11,0004.06
2023-12-18 21:55:00,SystemResetWarning,0828.3,5.00,000.00,023.2,022.4,000.0,031.4,024.6,11.7,0000.0,0013.35,0005.18,0004.12
2023-12-18 21:56:00,SystemResetWarning,0828.3,5.01,000.00,023.2,022.4,000.0,031.4,024.6,11.6,0000.0,0014.39,0005.26,0004.17
2023-12-18 21:57:00,SystemResetWarning,0828.2,4.99,000.00,023.2,022.4,000.0,031.4,024.6,11.5,0000.0,0016.78,0005.36,0004.23
2023-12-18 21:58:00,SystemResetWarning,0828.2,5.00,000.00,023.2,022.4,000.0,031.4,024.6,11.5,0000.0,0016.85,0005.45,0004.26
2023-12-18 21:59:00,SystemResetWarning,0828.3,4.99,000.00,023.2,022.4,000.0,031.4,024.6,11.5,0000.0,0017.03,0005.46,0004.29
